カタログに戻る

CZ-3B R/B

運用中HEO
NORAD 62375·ROCKET BODY·🇨🇳 China

打ち上げ Dec 20, 2024 から Xichang Satellite Launch Center

Loading…

次のパス (今後24時間)

TLE

最新Source: Space-Track

元期: Sep 13, 2026, 10:36 UTC

1 62375U 24246B   26256.44234089  .00412993  80028-6  14199-2 0  9994
2 62375  28.0158 280.8323 5671599 103.6767 322.5006  4.68702139 21468

AllMySatでCZ-3B R/Bをリアルタイム追跡

Download on the App Store